Regional Weather Roundup
Issued by NWS

Home | Current Version | Previous Version | Text Only | Print | Product List | Glossary On
Versions: 1 2 3 4 5 6 7 8 9 10 11 12 13 14 15 16 17 18 19 20 21 22 23 24 25 26 27 28 29 30 31 32 33 34 35 36 37 38 39 40 41 42 43 44 45 46 47 48 49 50
000
ASUS43 KBIS 010320
RWRND

NORTH DAKOTA REGIONAL WEATHER ROUNDUP
NATIONAL WEATHER SERVICE BISMARCK ND
900 PM CST SAT FEB 28 2015

NOTE: "FAIR" INDICATES FEW OR NO CLOUDS BELOW 12,000 FEET WITH NO
SIGNIFICANT WEATHER AND/OR OBSTRUCTIONS TO VISIBILITY.


NDZ001>003-009>011-017-010400-
NORTHWEST NORTH DAKOTA

CITY           SKY/WX    TMP DP  RH WIND       PRES   REMARKS
WILLISTON      CLEAR      2  -4  76 VRB3      30.15S
MINOT          CLEAR      1  -4  79 SW8       30.13F WCI -13
MINOT AFB      CLEAR      0  -5  82 W13       30.13F WCI -18
$$

NDZ018>021-031>035-040>046-010400-
SOUTHWEST NORTH DAKOTA

CITY           SKY/WX    TMP DP  RH WIND       PRES   REMARKS
BISMARCK       CLEAR     11   3  70 NW6       30.20S WCI   1
DICKINSON      CLEAR      5   0  79 W6        30.11S WCI  -6
GARRISON         N/A      2  -3  80 W6        30.15F WCI  -9
HETTINGER ARPT CLEAR      7   1  76 W5        30.14S WCI  -2
$$

NDZ004>008-012>016-024-026-027-054-010400-
NORTHEAST NORTH DAKOTA

CITY           SKY/WX    TMP DP  RH WIND       PRES   REMARKS
GRAND FORKS    MOCLDY     9   3  77 W8        30.16S WCI  -3
GRND FRKS AFB  CLOUDY     9   1  69 W13       30.16S WCI  -7
DEVILS LAKE    CLEAR      5  -2  72 W16       30.12F WCI -14
$$

NDZ022-023-025-028>030-036>039-047>053-010400-
SOUTHEAST NORTH DAKOTA

CITY           SKY/WX    TMP DP  RH WIND       PRES   REMARKS
FARGO          CLOUDY    16   7  67 NW16      30.19R WCI   1
JAMESTOWN      CLEAR      4  -2  76 W10       30.16S WCI -11
$$



USA.gov is the U.S. government's official web portal to all federal, state and local government web resources and services.